Location: Chimay
(50.0486°N, 4.3171°E)
Time: 07:47:54
(UTC+00:00)

SPOT 5 - Pass Details

Date: 08 August 2020
Orbit: 624 x 814 km, 98.3° (Epoch: 27 September)

Event Time Altitude Azimuth Distance (km) Brightness Sun altitude
Exits shadow 22:15:10 19° 228° (SW) 1,479 4.3 -21.0°
Maximum altitude 22:17:02 26° 266° (W) 1,243 4.3 -21.2°
Drops below altitude 10° 22:20:42 10° 323° (NW) 2,019 6.3 -21.4°
Sets 22:23:14 0° 336° (NNW) 2,946 7.6 -21.5°
